Time,TemperatureF,DewpointF,PressureIn,WindDirection,WindDirectionDegrees,WindSpeedMPH,WindSpeedGustMPH,Humidity,HourlyPrecipIn,Conditions,Clouds,dailyrainin,SoftwareType,DateUTC
2013-05-04 00:01:00,54.2,41.5,30.15,SE,132,3.0,4.0,62,0.00,,,0.00,Wunderground v.1.15,2013-05-04 04:01:00,
2013-05-04 00:02:00,54.1,41.4,30.15,SE,126,3.0,4.0,62,0.00,,,0.00,Wunderground v.1.15,2013-05-04 04:02:00,
2013-05-04 00:04:00,54.0,41.3,30.15,ESE,107,4.0,4.0,62,0.00,,,0.00,Wunderground v.1.15,2013-05-04 04:04:00,
2013-05-04 00:05:00,54.0,41.3,30.15,SE,126,2.0,4.0,62,0.00,,,0.00,Wunderground v.1.15,2013-05-04 04:05:00,
2013-05-04 00:07:00,53.9,41.2,30.15,ESE,105,4.0,4.0,62,0.00,,,0.00,Wunderground v.1.15,2013-05-04 04:07:00,
2013-05-04 00:13:00,53.6,40.5,30.15,SE,136,4.0,4.0,61,0.00,,,0.00,Wunderground v.1.15,2013-05-04 04:13:00,
2013-05-04 00:18:00,53.5,39.9,30.15,ESE,117,4.0,5.0,60,0.00,,,0.00,Wunderground v.1.15,2013-05-04 04:18:00,
2013-05-04 00:24:00,53.3,38.4,30.15,SE,129,3.0,7.0,57,0.00,,,0.00,Wunderground v.1.15,2013-05-04 04:24:00,
2013-05-04 00:29:00,53.1,36.9,30.14,ENE,65,5.0,7.0,54,0.00,,,0.00,Wunderground v.1.15,2013-05-04 04:29:00,
2013-05-04 00:34:00,53.1,34.9,30.14,ESE,105,3.0,7.0,50,0.00,,,0.00,Wunderground v.1.15,2013-05-04 04:34:00,
2013-05-04 00:40:00,52.8,34.2,30.14,ESE,105,1.0,4.0,49,0.00,,,0.00,Wunderground v.1.15,2013-05-04 04:40:00,
2013-05-04 00:46:00,52.6,31.8,30.14,SSE,150,4.0,4.0,45,0.00,,,0.00,Wunderground v.1.15,2013-05-04 04:46:00,
2013-05-04 00:51:00,52.4,30.5,30.14,East,101,7.0,7.0,43,0.00,,,0.00,Wunderground v.1.15,2013-05-04 04:51:00,
2013-05-04 00:57:00,52.2,30.4,30.14,ESE,114,4.0,7.0,43,0.00,,,0.00,Wunderground v.1.15,2013-05-04 04:57:00,
2013-05-04 01:03:00,52.0,29.0,30.14,SE,126,2.0,5.0,41,0.00,,,0.00,Wunderground v.1.15,2013-05-04 05:03:00,
2013-05-04 01:09:00,51.8,28.8,30.14,ESE,107,4.0,8.0,41,0.00,,,0.00,Wunderground v.1.15,2013-05-04 05:09:00,
2013-05-04 01:15:00,51.5,29.1,30.14,SSE,150,3.0,5.0,42,0.00,,,0.00,Wunderground v.1.15,2013-05-04 05:15:00,
2013-05-04 01:21:00,51.3,29.0,30.14,SSE,159,4.0,4.0,42,0.00,,,0.00,Wunderground v.1.15,2013-05-04 05:21:00,
2013-05-04 01:27:00,51.1,28.8,30.14,ESE,112,3.0,5.0,42,0.00,,,0.00,Wunderground v.1.15,2013-05-04 05:27:00,
2013-05-04 01:32:00,50.9,28.6,30.13,SE,132,3.0,4.0,42,0.00,,,0.00,Wunderground v.1.15,2013-05-04 05:32:00,
2013-05-04 01:38:00,50.6,28.3,30.13,SSE,155,3.0,4.0,42,0.00,,,0.00,Wunderground v.1.15,2013-05-04 05:38:00,
2013-05-04 01:44:00,50.5,27.7,30.13,ESE,123,2.0,3.0,41,0.00,,,0.00,Wunderground v.1.15,2013-05-04 05:44:00,
2013-05-04 01:50:00,50.3,28.1,30.13,SE,124,4.0,4.0,42,0.00,,,0.00,Wunderground v.1.15,2013-05-04 05:50:00,
2013-05-04 01:56:00,50.1,27.3,30.13,ESE,104,4.0,6.0,41,0.00,,,0.00,Wunderground v.1.15,2013-05-04 05:56:00,
2013-05-04 02:01:00,50.0,27.2,30.12,East,101,6.0,6.0,41,0.00,,,0.00,Wunderground v.1.15,2013-05-04 06:01:00,
2013-05-04 02:06:00,49.9,27.7,30.13,SE,128,1.0,6.0,42,0.00,,,0.00,Wunderground v.1.15,2013-05-04 06:06:00,
2013-05-04 02:11:00,49.6,27.4,30.13,ESE,117,3.0,7.0,42,0.00,,,0.00,Wunderground v.1.15,2013-05-04 06:11:00,
2013-05-04 02:16:00,49.5,27.3,30.12,ENE,78,2.0,7.0,42,0.00,,,0.00,Wunderground v.1.15,2013-05-04 06:16:00,
2013-05-04 02:21:00,49.3,27.7,30.12,East,100,5.0,7.0,43,0.00,,,0.00,Wunderground v.1.15,2013-05-04 06:21:00,
2013-05-04 02:26:00,49.2,27.6,30.12,ESE,121,2.0,7.0,43,0.00,,,0.00,Wunderground v.1.15,2013-05-04 06:26:00,
2013-05-04 02:31:00,49.0,27.5,30.12,SE,127,2.0,7.0,43,0.00,,,0.00,Wunderground v.1.15,2013-05-04 06:31:00,
2013-05-04 02:36:00,48.9,27.4,30.12,East,98,0.0,7.0,43,0.00,,,0.00,Wunderground v.1.15,2013-05-04 06:36:00,
2013-05-04 02:41:00,48.7,27.7,30.11,ESE,105,3.0,5.0,44,0.00,,,0.00,Wunderground v.1.15,2013-05-04 06:41:00,
2013-05-04 02:47:00,48.5,27.0,30.12,ESE,111,3.0,8.0,43,0.00,,,0.00,Wunderground v.1.15,2013-05-04 06:47:00,
2013-05-04 02:52:00,48.4,27.5,30.11,ESE,103,4.0,4.0,44,0.00,,,0.00,Wunderground v.1.15,2013-05-04 06:52:00,
2013-05-04 02:57:00,48.3,27.4,30.11,ESE,119,2.0,7.0,44,0.00,,,0.00,Wunderground v.1.15,2013-05-04 06:57:00,
2013-05-04 03:02:00,48.2,27.3,30.11,SE,137,4.0,7.0,44,0.00,,,0.00,Wunderground v.1.15,2013-05-04 07:02:00,
2013-05-04 03:07:00,48.2,27.8,30.11,SE,126,2.0,7.0,45,0.00,,,0.00,Wunderground v.1.15,2013-05-04 07:07:00,
2013-05-04 03:12:00,48.1,27.7,30.11,ESE,119,1.0,7.0,45,0.00,,,0.00,Wunderground v.1.15,2013-05-04 07:12:00,
2013-05-04 03:17:00,48.0,28.2,30.11,ESE,119,1.0,7.0,46,0.00,,,0.00,Wunderground v.1.15,2013-05-04 07:17:00,
2013-05-04 03:22:00,47.9,28.1,30.10,SE,144,5.0,7.0,46,0.00,,,0.00,Wunderground v.1.15,2013-05-04 07:22:00,
2013-05-04 03:27:00,47.8,28.0,30.10,ESE,111,5.0,7.0,46,0.00,,,0.00,Wunderground v.1.15,2013-05-04 07:27:00,
2013-05-04 03:32:00,47.8,28.0,30.10,ESE,111,4.0,7.0,46,0.00,,,0.00,Wunderground v.1.15,2013-05-04 07:32:00,
2013-05-04 03:37:00,47.8,28.0,30.10,ESE,103,5.0,8.0,46,0.00,,,0.00,Wunderground v.1.15,2013-05-04 07:37:00,
2013-05-04 03:42:00,47.7,27.9,30.09,ESE,114,5.0,9.0,46,0.00,,,0.00,Wunderground v.1.15,2013-05-04 07:42:00,
2013-05-04 03:47:00,47.6,27.8,30.09,ESE,119,7.0,9.0,46,0.00,,,0.00,Wunderground v.1.15,2013-05-04 07:47:00,
2013-05-04 03:52:00,47.6,27.8,30.09,ESE,110,4.0,9.0,46,0.00,,,0.00,Wunderground v.1.15,2013-05-04 07:52:00,
2013-05-04 03:57:00,47.5,27.7,30.09,ESE,117,8.0,9.0,46,0.00,,,0.00,Wunderground v.1.15,2013-05-04 07:57:00,
2013-05-04 04:02:00,47.4,28.2,30.09,ESE,102,4.0,6.0,47,0.00,,,0.00,Wunderground v.1.15,2013-05-04 08:02:00,
2013-05-04 04:07:00,47.3,28.1,30.09,ESE,105,5.0,8.0,47,0.00,,,0.00,Wunderground v.1.15,2013-05-04 08:07:00,
2013-05-04 04:12:00,47.2,28.0,30.09,ESE,105,0.0,7.0,47,0.00,,,0.00,Wunderground v.1.15,2013-05-04 08:12:00,
2013-05-04 04:17:00,47.1,27.9,30.10,ESE,103,4.0,8.0,47,0.00,,,0.00,Wunderground v.1.15,2013-05-04 08:17:00,
2013-05-04 04:22:00,47.0,27.8,30.10,ESE,115,3.0,5.0,47,0.00,,,0.00,Wunderground v.1.15,2013-05-04 08:22:00,
2013-05-04 04:27:00,47.0,27.8,30.10,ESE,109,3.0,7.0,47,0.00,,,0.00,Wunderground v.1.15,2013-05-04 08:27:00,
2013-05-04 04:32:00,46.9,28.2,30.10,SE,140,5.0,7.0,48,0.00,,,0.00,Wunderground v.1.15,2013-05-04 08:32:00,
2013-05-04 04:37:00,46.8,28.1,30.10,SE,139,3.0,7.0,48,0.00,,,0.00,Wunderground v.1.15,2013-05-04 08:37:00,
2013-05-04 04:43:00,46.7,28.5,30.10,ESE,123,2.0,5.0,49,0.00,,,0.00,Wunderground v.1.15,2013-05-04 08:43:00,
2013-05-04 04:48:00,46.7,29.0,30.10,SE,136,4.0,7.0,50,0.00,,,0.00,Wunderground v.1.15,2013-05-04 08:48:00,
2013-05-04 04:53:00,46.6,29.4,30.10,ESE,117,2.0,5.0,51,0.00,,,0.00,Wunderground v.1.15,2013-05-04 08:53:00,
2013-05-04 04:58:00,46.6,29.4,30.10,SE,132,1.0,7.0,51,0.00,,,0.00,Wunderground v.1.15,2013-05-04 08:58:00,
2013-05-04 05:03:00,46.4,29.7,30.10,ESE,120,1.0,4.0,52,0.00,,,0.00,Wunderground v.1.15,2013-05-04 09:03:00,
2013-05-04 05:08:00,46.3,30.1,30.10,SW,223,7.0,7.0,53,0.00,,,0.00,Wunderground v.1.15,2013-05-04 09:08:00,
2013-05-04 05:13:00,46.2,30.5,30.10,NE,42,0.0,6.0,54,0.00,,,0.00,Wunderground v.1.15,2013-05-04 09:13:00,
2013-05-04 05:18:00,46.0,30.3,30.10,SE,146,3.0,8.0,54,0.00,,,0.00,Wunderground v.1.15,2013-05-04 09:18:00,
2013-05-04 05:23:00,45.9,30.6,30.10,ESE,116,1.0,5.0,55,0.00,,,0.00,Wunderground v.1.15,2013-05-04 09:23:00,
2013-05-04 05:28:00,45.8,31.0,30.10,ESE,111,7.0,7.0,56,0.00,,,0.00,Wunderground v.1.15,2013-05-04 09:28:00,
2013-05-04 05:33:00,45.6,31.7,30.10,SSE,163,2.0,4.0,58,0.00,,,0.00,Wunderground v.1.15,2013-05-04 09:33:00,
2013-05-04 05:38:00,45.5,31.6,30.11,SE,135,2.0,5.0,58,0.00,,,0.00,Wunderground v.1.15,2013-05-04 09:38:00,
2013-05-04 05:43:00,45.4,31.9,30.11,ESE,103,2.0,5.0,59,0.00,,,0.00,Wunderground v.1.15,2013-05-04 09:43:00,
2013-05-04 05:48:00,45.2,32.1,30.11,ESE,117,8.0,8.0,60,0.00,,,0.00,Wunderground v.1.15,2013-05-04 09:48:00,
2013-05-04 05:53:00,45.2,32.5,30.10,SE,128,4.0,8.0,61,0.00,,,0.00,Wunderground v.1.15,2013-05-04 09:53:00,
2013-05-04 05:58:00,45.1,32.8,30.10,East,96,1.0,8.0,62,0.00,,,0.00,Wunderground v.1.15,2013-05-04 09:58:00,
2013-05-04 06:03:00,45.1,32.8,30.11,ESE,123,3.0,14.0,62,0.00,,,0.00,Wunderground v.1.15,2013-05-04 10:03:00,
2013-05-04 06:08:00,45.0,33.2,30.11,East,91,7.0,14.0,63,0.00,,,0.00,Wunderground v.1.15,2013-05-04 10:08:00,
2013-05-04 06:13:00,45.0,33.2,30.11,ESE,113,1.0,7.0,63,0.00,,,0.00,Wunderground v.1.15,2013-05-04 10:13:00,
2013-05-04 06:18:00,45.0,33.5,30.11,ESE,120,2.0,7.0,64,0.00,,,0.00,Wunderground v.1.15,2013-05-04 10:18:00,
2013-05-04 06:23:00,45.0,33.5,30.11,SE,125,0.0,7.0,64,0.00,,,0.00,Wunderground v.1.15,2013-05-04 10:23:00,
2013-05-04 06:28:00,44.9,33.5,30.11,SE,131,2.0,9.0,64,0.00,,,0.00,Wunderground v.1.15,2013-05-04 10:28:00,
2013-05-04 06:33:00,44.9,33.8,30.11,SE,137,0.0,6.0,65,0.00,,,0.00,Wunderground v.1.15,2013-05-04 10:33:00,
2013-05-04 06:38:00,44.9,34.2,30.11,ESE,111,0.0,7.0,66,0.00,,,0.00,Wunderground v.1.15,2013-05-04 10:38:00,
2013-05-04 06:43:00,44.9,34.2,30.11,East,92,6.0,6.0,66,0.00,,,0.00,Wunderground v.1.15,2013-05-04 10:43:00,
2013-05-04 06:48:00,44.9,34.6,30.11,East,101,2.0,7.0,67,0.00,,,0.00,Wunderground v.1.15,2013-05-04 10:48:00,
2013-05-04 06:53:00,44.9,34.6,30.12,East,81,3.0,8.0,67,0.00,,,0.00,Wunderground v.1.15,2013-05-04 10:53:00,
2013-05-04 06:58:00,45.0,34.7,30.11,ESE,120,1.0,9.0,67,0.00,,,0.00,Wunderground v.1.15,2013-05-04 10:58:00,
2013-05-04 07:03:00,45.1,34.8,30.12,East,101,2.0,7.0,67,0.00,,,0.00,Wunderground v.1.15,2013-05-04 11:03:00,
2013-05-04 07:08:00,45.1,35.2,30.12,ESE,106,5.0,9.0,68,0.00,,,0.00,Wunderground v.1.15,2013-05-04 11:08:00,
2013-05-04 07:13:00,45.2,34.9,30.11,ESE,111,2.0,9.0,67,0.00,,,0.00,Wunderground v.1.15,2013-05-04 11:13:00,
2013-05-04 07:18:00,45.2,34.9,30.12,ESE,113,0.0,9.0,67,0.00,,,0.00,Wunderground v.1.15,2013-05-04 11:18:00,
2013-05-04 07:24:00,45.3,35.0,30.12,SE,134,5.0,8.0,67,0.00,,,0.00,Wunderground v.1.15,2013-05-04 11:24:00,
2013-05-04 07:29:00,45.4,35.1,30.12,SE,131,3.0,9.0,67,0.00,,,0.00,Wunderground v.1.15,2013-05-04 11:29:00,
2013-05-04 07:34:00,45.6,35.3,30.12,SE,128,5.0,11.0,67,0.00,,,0.00,Wunderground v.1.15,2013-05-04 11:34:00,
2013-05-04 07:39:00,45.7,35.4,30.12,ESE,115,3.0,11.0,67,0.00,,,0.00,Wunderground v.1.15,2013-05-04 11:39:00,
2013-05-04 07:44:00,46.0,35.3,30.12,ESE,115,3.0,5.0,66,0.00,,,0.00,Wunderground v.1.15,2013-05-04 11:44:00,
2013-05-04 07:49:00,46.3,35.6,30.13,SE,135,4.0,5.0,66,0.00,,,0.00,Wunderground v.1.15,2013-05-04 11:49:00,
2013-05-04 07:55:00,46.4,35.7,30.13,ESE,118,1.0,7.0,66,0.00,,,0.00,Wunderground v.1.15,2013-05-04 11:55:00,
2013-05-04 08:00:00,46.5,35.4,30.13,ENE,63,3.0,12.0,65,0.00,,,0.00,Wunderground v.1.15,2013-05-04 12:00:00,
2013-05-04 08:05:00,46.8,35.6,30.13,ESE,112,2.0,4.0,65,0.00,,,0.00,Wunderground v.1.15,2013-05-04 12:05:00,
2013-05-04 08:10:00,47.1,35.9,30.13,ESE,117,4.0,5.0,65,0.00,,,0.00,Wunderground v.1.15,2013-05-04 12:10:00,
2013-05-04 08:16:00,47.4,35.4,30.13,ESE,114,4.0,5.0,63,0.00,,,0.00,Wunderground v.1.15,2013-05-04 12:16:00,
2013-05-04 08:21:00,47.6,35.6,30.14,ESE,117,1.0,5.0,63,0.00,,,0.00,Wunderground v.1.15,2013-05-04 12:21:00,
2013-05-04 08:26:00,47.7,35.7,30.14,ESE,111,3.0,6.0,63,0.00,,,0.00,Wunderground v.1.15,2013-05-04 12:26:00,
2013-05-04 08:31:00,47.9,35.9,30.13,East,85,2.0,8.0,63,0.00,,,0.00,Wunderground v.1.15,2013-05-04 12:31:00,
2013-05-04 08:36:00,48.1,36.5,30.14,ESE,119,0.0,8.0,64,0.00,,,0.00,Wunderground v.1.15,2013-05-04 12:36:00,
2013-05-04 08:41:00,48.5,36.5,30.14,ESE,122,4.0,8.0,63,0.00,,,0.00,Wunderground v.1.15,2013-05-04 12:41:00,
2013-05-04 08:46:00,48.8,36.8,30.14,East,99,5.0,8.0,63,0.00,,,0.00,Wunderground v.1.15,2013-05-04 12:46:00,
2013-05-04 08:51:00,48.8,36.4,30.14,SSE,159,0.0,5.0,62,0.00,,,0.00,Wunderground v.1.15,2013-05-04 12:51:00,
2013-05-04 08:56:00,48.9,36.4,30.14,ESE,113,4.0,8.0,62,0.00,,,0.00,Wunderground v.1.15,2013-05-04 12:56:00,
2013-05-04 09:01:00,49.1,36.2,30.14,SE,125,6.0,6.0,61,0.00,,,0.00,Wunderground v.1.15,2013-05-04 13:01:00,
2013-05-04 09:04:00,49.1,36.2,30.14,ESE,103,0.0,8.0,61,0.00,,,0.00,Wunderground v.1.15,2013-05-04 13:04:00,
2013-05-04 09:09:00,49.5,36.6,30.14,ESE,108,0.0,8.0,61,0.00,,,0.00,Wunderground v.1.15,2013-05-04 13:09:00,
2013-05-04 09:14:00,49.9,36.6,30.14,NE,51,2.0,9.0,60,0.00,,,0.00,Wunderground v.1.15,2013-05-04 13:14:00,
2013-05-04 09:19:00,50.0,36.2,30.14,ESE,121,4.0,9.0,59,0.00,,,0.00,Wunderground v.1.15,2013-05-04 13:19:00,
2013-05-04 09:24:00,50.4,36.6,30.14,ESE,122,0.0,7.0,59,0.00,,,0.00,Wunderground v.1.15,2013-05-04 13:24:00,
2013-05-04 09:29:00,51.0,37.2,30.14,ENE,75,1.0,7.0,59,0.00,,,0.00,Wunderground v.1.15,2013-05-04 13:29:00,
2013-05-04 09:34:00,51.4,37.1,30.14,ESE,116,5.0,7.0,58,0.00,,,0.00,Wunderground v.1.15,2013-05-04 13:34:00,
2013-05-04 09:39:00,51.7,36.9,30.14,ESE,108,2.0,7.0,57,0.00,,,0.00,Wunderground v.1.15,2013-05-04 13:39:00,
2013-05-04 09:44:00,52.0,37.2,30.14,ENE,63,8.0,8.0,57,0.00,,,0.00,Wunderground v.1.15,2013-05-04 13:44:00,
2013-05-04 09:49:00,52.3,37.1,30.14,SE,136,3.0,8.0,56,0.00,,,0.00,Wunderground v.1.15,2013-05-04 13:49:00,
2013-05-04 09:54:00,52.3,37.1,30.14,NNE,20,4.0,8.0,56,0.00,,,0.00,Wunderground v.1.15,2013-05-04 13:54:00,
2013-05-04 09:59:00,52.1,36.9,30.14,ENE,78,8.0,10.0,56,0.00,,,0.00,Wunderground v.1.15,2013-05-04 13:59:00,
2013-05-04 10:04:00,51.9,36.7,30.14,ESE,115,1.0,8.0,56,0.00,,,0.00,Wunderground v.1.15,2013-05-04 14:04:00,
2013-05-04 10:09:00,52.2,37.4,30.14,East,96,2.0,8.0,57,0.00,,,0.00,Wunderground v.1.15,2013-05-04 14:09:00,
2013-05-04 10:14:00,52.8,37.5,30.14,SE,132,1.0,9.0,56,0.00,,,0.00,Wunderground v.1.15,2013-05-04 14:14:00,
2013-05-04 10:19:00,53.5,38.2,30.14,SE,131,1.0,9.0,56,0.00,,,0.00,Wunderground v.1.15,2013-05-04 14:19:00,
2013-05-04 10:24:00,54.5,38.7,30.14,ENE,68,1.0,5.0,55,0.00,,,0.00,Wunderground v.1.15,2013-05-04 14:24:00,
2013-05-04 10:29:00,55.0,38.6,30.14,ESE,122,1.0,7.0,54,0.00,,,0.00,Wunderground v.1.15,2013-05-04 14:29:00,
2013-05-04 10:34:00,55.3,38.9,30.14,NNE,20,2.0,5.0,54,0.00,,,0.00,Wunderground v.1.15,2013-05-04 14:34:00,
2013-05-04 10:39:00,55.9,38.5,30.14,North,349,1.0,5.0,52,0.00,,,0.00,Wunderground v.1.15,2013-05-04 14:39:00,
2013-05-04 10:44:00,56.8,38.3,30.14,NE,40,0.0,5.0,50,0.00,,,0.00,Wunderground v.1.15,2013-05-04 14:44:00,
2013-05-04 10:49:00,57.5,39.0,30.14,East,95,0.0,5.0,50,0.00,,,0.00,Wunderground v.1.15,2013-05-04 14:49:00,
2013-05-04 10:54:00,58.5,38.9,30.14,ENE,59,4.0,5.0,48,0.00,,,0.00,Wunderground v.1.15,2013-05-04 14:54:00,
2013-05-04 10:59:00,59.1,37.8,30.14,NNW,345,4.0,8.0,45,0.00,,,0.00,Wunderground v.1.15,2013-05-04 14:59:00,
2013-05-04 11:04:00,59.5,38.7,30.14,ESE,104,5.0,7.0,46,0.00,,,0.00,Wunderground v.1.15,2013-05-04 15:04:00,
2013-05-04 11:09:00,59.8,36.6,30.14,ENE,67,4.0,7.0,42,0.00,,,0.00,Wunderground v.1.15,2013-05-04 15:09:00,
2013-05-04 11:14:00,59.7,36.6,30.14,ESE,114,3.0,6.0,42,0.00,,,0.00,Wunderground v.1.15,2013-05-04 15:14:00,
2013-05-04 11:19:00,59.5,36.4,30.14,South,171,2.0,7.0,42,0.00,,,0.00,Wunderground v.1.15,2013-05-04 15:19:00,
2013-05-04 11:24:00,59.5,37.6,30.14,East,86,5.0,7.0,44,0.00,,,0.00,Wunderground v.1.15,2013-05-04 15:24:00,
2013-05-04 11:29:00,60.0,38.6,30.14,WNW,286,2.0,7.0,45,0.00,,,0.00,Wunderground v.1.15,2013-05-04 15:29:00,
2013-05-04 11:34:00,60.5,36.7,30.14,ESE,111,0.0,8.0,41,0.00,,,0.00,Wunderground v.1.15,2013-05-04 15:34:00,
2013-05-04 11:40:00,60.3,36.5,30.14,ESE,109,2.0,8.0,41,0.00,,,0.00,Wunderground v.1.15,2013-05-04 15:40:00,
2013-05-04 11:45:00,60.8,37.5,30.14,East,89,5.0,6.0,42,0.00,,,0.00,Wunderground v.1.15,2013-05-04 15:45:00,
2013-05-04 11:50:00,60.7,36.8,30.13,South,188,5.0,5.0,41,0.00,,,0.00,Wunderground v.1.15,2013-05-04 15:50:00,
2013-05-04 11:55:00,60.9,35.8,30.13,SE,137,0.0,10.0,39,0.00,,,0.00,Wunderground v.1.15,2013-05-04 15:55:00,
2013-05-04 12:00:00,61.4,36.2,30.13,SE,126,4.0,4.0,39,0.00,,,0.00,Wunderground v.1.15,2013-05-04 16:00:00,
2013-05-04 12:05:00,61.5,35.0,30.13,NE,38,1.0,10.0,37,0.00,,,0.00,Wunderground v.1.15,2013-05-04 16:05:00,
2013-05-04 12:10:00,62.0,35.4,30.13,ESE,113,2.0,3.0,37,0.00,,,0.00,Wunderground v.1.15,2013-05-04 16:10:00,
2013-05-04 12:15:00,62.8,34.7,30.12,ESE,111,0.0,14.0,35,0.00,,,0.00,Wunderground v.1.15,2013-05-04 16:15:00,
2013-05-04 12:20:00,63.1,33.5,30.12,ENE,70,2.0,5.0,33,0.00,,,0.00,Wunderground v.1.15,2013-05-04 16:20:00,
2013-05-04 12:25:00,62.7,34.6,30.13,ESE,102,2.0,7.0,35,0.00,,,0.00,Wunderground v.1.15,2013-05-04 16:25:00,
2013-05-04 12:30:00,62.9,33.3,30.12,SSE,162,3.0,3.0,33,0.00,,,0.00,Wunderground v.1.15,2013-05-04 16:30:00,
2013-05-04 12:36:00,63.2,33.6,30.12,South,172,2.0,7.0,33,0.00,,,0.00,Wunderground v.1.15,2013-05-04 16:36:00,
2013-05-04 12:40:00,63.4,33.0,30.12,SSE,152,1.0,3.0,32,0.00,,,0.00,Wunderground v.1.15,2013-05-04 16:40:00,
2013-05-04 12:46:00,63.7,34.0,30.12,NE,37,4.0,7.0,33,0.00,,,0.00,Wunderground v.1.15,2013-05-04 16:46:00,
2013-05-04 12:51:00,63.9,34.2,30.12,NE,35,2.0,3.0,33,0.00,,,0.00,Wunderground v.1.15,2013-05-04 16:51:00,
2013-05-04 12:56:00,63.6,33.2,30.12,ESE,109,4.0,9.0,32,0.00,,,0.00,Wunderground v.1.15,2013-05-04 16:56:00,
2013-05-04 13:01:00,63.4,33.0,30.12,SE,136,0.0,3.0,32,0.00,,,0.00,Wunderground v.1.15,2013-05-04 17:01:00,
2013-05-04 13:06:00,63.7,32.5,30.12,ESE,121,1.0,7.0,31,0.00,,,0.00,Wunderground v.1.15,2013-05-04 17:06:00,
2013-05-04 13:11:00,63.1,32.7,30.12,East,93,3.0,4.0,32,0.00,,,0.00,Wunderground v.1.15,2013-05-04 17:11:00,
2013-05-04 13:16:00,62.7,32.4,30.11,East,89,1.0,12.0,32,0.00,,,0.00,Wunderground v.1.15,2013-05-04 17:16:00,
2013-05-04 13:21:00,62.9,33.3,30.11,ESE,111,5.0,7.0,33,0.00,,,0.00,Wunderground v.1.15,2013-05-04 17:21:00,
2013-05-04 13:27:00,63.2,33.6,30.11,ENE,66,3.0,8.0,33,0.00,,,0.00,Wunderground v.1.15,2013-05-04 17:27:00,
2013-05-04 13:32:00,64.0,34.3,30.11,East,87,1.0,5.0,33,0.00,,,0.00,Wunderground v.1.15,2013-05-04 17:32:00,
2013-05-04 13:37:00,64.5,34.7,30.11,SE,146,2.0,8.0,33,0.00,,,0.00,Wunderground v.1.15,2013-05-04 17:37:00,
2013-05-04 13:42:00,64.9,35.8,30.11,SE,135,2.0,7.0,34,0.00,,,0.00,Wunderground v.1.15,2013-05-04 17:42:00,
2013-05-04 13:47:00,65.4,35.5,30.11,East,79,1.0,8.0,33,0.00,,,0.00,Wunderground v.1.15,2013-05-04 17:47:00,
2013-05-04 13:52:00,65.2,34.6,30.11,NNE,26,1.0,7.0,32,0.00,,,0.00,Wunderground v.1.15,2013-05-04 17:52:00,
2013-05-04 13:57:00,65.4,35.5,30.10,ESE,104,0.0,7.0,33,0.00,,,0.00,Wunderground v.1.15,2013-05-04 17:57:00,
2013-05-04 14:02:00,65.9,36.0,30.10,East,101,8.0,8.0,33,0.00,,,0.00,Wunderground v.1.15,2013-05-04 18:02:00,
2013-05-04 14:07:00,65.7,37.3,30.10,South,170,0.0,8.0,35,0.00,,,0.00,Wunderground v.1.15,2013-05-04 18:07:00,
2013-05-04 14:12:00,66.1,38.4,30.09,ESE,119,1.0,9.0,36,0.00,,,0.00,Wunderground v.1.15,2013-05-04 18:12:00,
2013-05-04 14:17:00,66.9,38.3,30.09,South,184,2.0,9.0,35,0.00,,,0.00,Wunderground v.1.15,2013-05-04 18:17:00,
2013-05-04 14:22:00,67.7,39.8,30.10,East,97,1.0,7.0,36,0.00,,,0.00,Wunderground v.1.15,2013-05-04 18:22:00,
2013-05-04 14:27:00,67.5,40.3,30.09,SSE,157,1.0,7.0,37,0.00,,,0.00,Wunderground v.1.15,2013-05-04 18:27:00,
2013-05-04 14:32:00,67.8,40.6,30.09,SSE,167,1.0,3.0,37,0.00,,,0.00,Wunderground v.1.15,2013-05-04 18:32:00,
2013-05-04 14:37:00,68.2,40.2,30.09,ESE,118,7.0,7.0,36,0.00,,,0.00,Wunderground v.1.15,2013-05-04 18:37:00,
2013-05-04 14:43:00,67.5,40.3,30.10,ESE,107,4.0,7.0,37,0.00,,,0.00,Wunderground v.1.15,2013-05-04 18:43:00,
2013-05-04 14:48:00,66.9,41.8,30.09,East,100,1.0,7.0,40,0.00,,,0.00,Wunderground v.1.15,2013-05-04 18:48:00,
2013-05-04 14:53:00,67.0,41.9,30.09,SE,138,3.0,6.0,40,0.00,,,0.00,Wunderground v.1.15,2013-05-04 18:53:00,
2013-05-04 14:58:00,66.4,42.0,30.09,East,88,2.0,13.0,41,0.00,,,0.00,Wunderground v.1.15,2013-05-04 18:58:00,
2013-05-04 15:03:00,65.8,42.1,30.09,NE,38,8.0,8.0,42,0.00,,,0.00,Wunderground v.1.15,2013-05-04 19:03:00,
2013-05-04 15:08:00,65.3,41.6,30.09,NE,54,4.0,14.0,42,0.00,,,0.00,Wunderground v.1.15,2013-05-04 19:08:00,
2013-05-04 15:13:00,65.6,41.9,30.09,ESE,120,4.0,8.0,42,0.00,,,0.00,Wunderground v.1.15,2013-05-04 19:13:00,
2013-05-04 15:18:00,65.5,41.2,30.09,ESE,115,0.0,10.0,41,0.00,,,0.00,Wunderground v.1.15,2013-05-04 19:18:00,
2013-05-04 15:23:00,65.5,41.2,30.08,East,93,5.0,6.0,41,0.00,,,0.00,Wunderground v.1.15,2013-05-04 19:23:00,
2013-05-04 15:28:00,65.8,42.1,30.09,ESE,116,2.0,11.0,42,0.00,,,0.00,Wunderground v.1.15,2013-05-04 19:28:00,
2013-05-04 15:33:00,65.9,41.5,30.08,ESE,117,4.0,5.0,41,0.00,,,0.00,Wunderground v.1.15,2013-05-04 19:33:00,
2013-05-04 15:38:00,65.4,41.1,30.08,North,355,3.0,8.0,41,0.00,,,0.00,Wunderground v.1.15,2013-05-04 19:38:00,
2013-05-04 15:43:00,65.0,40.7,30.08,ESE,110,0.0,6.0,41,0.00,,,0.00,Wunderground v.1.15,2013-05-04 19:43:00,
2013-05-04 15:48:00,64.9,40.6,30.08,SE,130,2.0,6.0,41,0.00,,,0.00,Wunderground v.1.15,2013-05-04 19:48:00,
2013-05-04 15:53:00,64.9,41.2,30.07,NE,43,0.0,5.0,42,0.00,,,0.00,Wunderground v.1.15,2013-05-04 19:53:00,
2013-05-04 15:58:00,65.1,40.8,30.07,NNE,15,0.0,5.0,41,0.00,,,0.00,Wunderground v.1.15,2013-05-04 19:58:00,
2013-05-04 16:03:00,65.2,40.9,30.07,ENE,63,0.0,8.0,41,0.00,,,0.00,Wunderground v.1.15,2013-05-04 20:03:00,
2013-05-04 16:08:00,65.4,41.1,30.07,East,93,2.0,8.0,41,0.00,,,0.00,Wunderground v.1.15,2013-05-04 20:08:00,
2013-05-04 16:13:00,66.1,41.7,30.07,SE,128,4.0,6.0,41,0.00,,,0.00,Wunderground v.1.15,2013-05-04 20:13:00,
2013-05-04 16:18:00,67.0,41.9,30.07,SE,124,5.0,8.0,40,0.00,,,0.00,Wunderground v.1.15,2013-05-04 20:18:00,
2013-05-04 16:23:00,67.1,41.3,30.07,North,11,3.0,8.0,39,0.00,,,0.00,Wunderground v.1.15,2013-05-04 20:23:00,
2013-05-04 16:28:00,67.2,41.4,30.07,East,85,1.0,9.0,39,0.00,,,0.00,Wunderground v.1.15,2013-05-04 20:28:00,
2013-05-04 16:33:00,67.8,41.9,30.07,West,267,3.0,6.0,39,0.00,,,0.00,Wunderground v.1.15,2013-05-04 20:33:00,
2013-05-04 16:38:00,67.5,41.0,30.07,ENE,67,3.0,8.0,38,0.00,,,0.00,Wunderground v.1.15,2013-05-04 20:38:00,
2013-05-04 16:43:00,67.3,40.8,30.07,SE,128,4.0,7.0,38,0.00,,,0.00,Wunderground v.1.15,2013-05-04 20:43:00,
2013-05-04 16:48:00,67.1,41.3,30.06,ENE,76,3.0,7.0,39,0.00,,,0.00,Wunderground v.1.15,2013-05-04 20:48:00,
2013-05-04 16:53:00,67.0,41.2,30.06,SSW,201,2.0,7.0,39,0.00,,,0.00,Wunderground v.1.15,2013-05-04 20:53:00,
2013-05-04 16:58:00,67.4,41.6,30.06,ESE,123,2.0,7.0,39,0.00,,,0.00,Wunderground v.1.15,2013-05-04 20:58:00,
2013-05-04 17:03:00,67.6,41.7,30.06,ESE,117,1.0,3.0,39,0.00,,,0.00,Wunderground v.1.15,2013-05-04 21:03:00,
2013-05-04 17:08:00,67.4,42.2,30.06,SE,127,0.0,7.0,40,0.00,,,0.00,Wunderground v.1.15,2013-05-04 21:08:00,
2013-05-04 17:13:00,67.0,41.9,30.06,ESE,115,2.0,12.0,40,0.00,,,0.00,Wunderground v.1.15,2013-05-04 21:13:00,
2013-05-04 17:18:00,66.7,41.6,30.06,East,92,2.0,12.0,40,0.00,,,0.00,Wunderground v.1.15,2013-05-04 21:18:00,
2013-05-04 17:23:00,66.3,41.9,30.06,SSE,150,0.0,5.0,41,0.00,,,0.00,Wunderground v.1.15,2013-05-04 21:23:00,
2013-05-04 17:28:00,66.2,42.4,30.06,SSE,152,1.0,9.0,42,0.00,,,0.00,Wunderground v.1.15,2013-05-04 21:28:00,
2013-05-04 17:33:00,65.7,42.0,30.06,East,84,5.0,8.0,42,0.00,,,0.00,Wunderground v.1.15,2013-05-04 21:33:00,
2013-05-04 17:38:00,65.7,42.6,30.06,South,169,5.0,8.0,43,0.00,,,0.00,Wunderground v.1.15,2013-05-04 21:38:00,
2013-05-04 17:43:00,65.7,42.0,30.06,West,262,3.0,4.0,42,0.00,,,0.00,Wunderground v.1.15,2013-05-04 21:43:00,
2013-05-04 17:48:00,65.6,41.9,30.06,NE,47,3.0,7.0,42,0.00,,,0.00,Wunderground v.1.15,2013-05-04 21:48:00,
2013-05-04 17:53:00,65.3,42.2,30.06,East,94,6.0,8.0,43,0.00,,,0.00,Wunderground v.1.15,2013-05-04 21:53:00,
2013-05-04 17:58:00,65.1,42.6,30.06,SE,132,3.0,8.0,44,0.00,,,0.00,Wunderground v.1.15,2013-05-04 21:58:00,
2013-05-04 18:03:00,65.1,42.6,30.06,East,101,0.0,8.0,44,0.00,,,0.00,Wunderground v.1.15,2013-05-04 22:03:00,
2013-05-04 18:08:00,65.5,43.0,30.06,East,100,1.0,8.0,44,0.00,,,0.00,Wunderground v.1.15,2013-05-04 22:08:00,
2013-05-04 18:13:00,65.5,42.4,30.06,ESE,119,2.0,5.0,43,0.00,,,0.00,Wunderground v.1.15,2013-05-04 22:13:00,
2013-05-04 18:18:00,64.8,42.4,30.06,ESE,116,1.0,9.0,44,0.00,,,0.00,Wunderground v.1.15,2013-05-04 22:18:00,
2013-05-04 18:23:00,64.3,42.5,30.06,ESE,106,0.0,4.0,45,0.00,,,0.00,Wunderground v.1.15,2013-05-04 22:23:00,
2013-05-04 18:28:00,63.9,42.1,30.06,ESE,109,4.0,8.0,45,0.00,,,0.00,Wunderground v.1.15,2013-05-04 22:28:00,
2013-05-04 18:33:00,63.6,42.4,30.06,East,98,2.0,5.0,46,0.00,,,0.00,Wunderground v.1.15,2013-05-04 22:33:00,
2013-05-04 18:38:00,63.4,42.2,30.07,SE,142,2.0,6.0,46,0.00,,,0.00,Wunderground v.1.15,2013-05-04 22:38:00,
2013-05-04 18:43:00,63.2,42.6,30.07,East,94,0.0,8.0,47,0.00,,,0.00,Wunderground v.1.15,2013-05-04 22:43:00,
2013-05-04 18:48:00,62.9,42.4,30.07,East,92,2.0,8.0,47,0.00,,,0.00,Wunderground v.1.15,2013-05-04 22:48:00,
2013-05-04 18:53:00,62.7,42.7,30.07,ESE,119,4.0,4.0,48,0.00,,,0.00,Wunderground v.1.15,2013-05-04 22:53:00,
2013-05-04 18:58:00,62.5,42.5,30.07,ESE,113,0.0,9.0,48,0.00,,,0.00,Wunderground v.1.15,2013-05-04 22:58:00,
2013-05-04 19:03:00,62.3,42.3,30.07,East,90,1.0,6.0,48,0.00,,,0.00,Wunderground v.1.15,2013-05-04 23:03:00,
2013-05-04 19:08:00,62.2,42.3,30.07,ESE,110,3.0,6.0,48,0.00,,,0.00,Wunderground v.1.15,2013-05-04 23:08:00,
2013-05-04 19:13:00,62.1,42.7,30.07,ESE,118,0.0,2.0,49,0.00,,,0.00,Wunderground v.1.15,2013-05-04 23:13:00,
2013-05-04 19:18:00,61.9,42.5,30.07,SE,130,1.0,4.0,49,0.00,,,0.00,Wunderground v.1.15,2013-05-04 23:18:00,
2013-05-04 19:23:00,61.6,42.2,30.07,ESE,111,2.0,7.0,49,0.00,,,0.00,Wunderground v.1.15,2013-05-04 23:23:00,
2013-05-04 19:28:00,61.3,42.0,30.07,ESE,109,0.0,7.0,49,0.00,,,0.00,Wunderground v.1.15,2013-05-04 23:28:00,
2013-05-04 19:33:00,61.0,41.7,30.08,East,83,0.0,6.0,49,0.00,,,0.00,Wunderground v.1.15,2013-05-04 23:33:00,
2013-05-04 19:38:00,60.9,42.1,30.08,SE,130,1.0,6.0,50,0.00,,,0.00,Wunderground v.1.15,2013-05-04 23:38:00,
2013-05-04 19:43:00,60.7,41.9,30.08,ESE,123,2.0,3.0,50,0.00,,,0.00,Wunderground v.1.15,2013-05-04 23:43:00,
2013-05-04 19:48:00,60.5,41.8,30.08,ESE,110,1.0,4.0,50,0.00,,,0.00,Wunderground v.1.15,2013-05-04 23:48:00,
2013-05-04 19:53:00,60.2,41.5,30.08,ESE,123,4.0,4.0,50,0.00,,,0.00,Wunderground v.1.15,2013-05-04 23:53:00,
2013-05-04 19:58:00,60.0,41.8,30.08,SE,131,1.0,4.0,51,0.00,,,0.00,Wunderground v.1.15,2013-05-04 23:58:00,
2013-05-04 20:03:00,59.8,41.6,30.09,ESE,123,0.0,4.0,51,0.00,,,0.00,Wunderground v.1.15,2013-05-05 00:03:00,
2013-05-04 20:08:00,59.6,41.4,30.09,ENE,67,3.0,8.0,51,0.00,,,0.00,Wunderground v.1.15,2013-05-05 00:08:00,
2013-05-04 20:14:00,59.3,41.2,30.09,ESE,119,0.0,3.0,51,0.00,,,0.00,Wunderground v.1.15,2013-05-05 00:14:00,
2013-05-04 20:19:00,59.2,41.1,30.09,ESE,119,0.0,3.0,51,0.00,,,0.00,Wunderground v.1.15,2013-05-05 00:19:00,
2013-05-04 20:24:00,58.9,41.3,30.10,ESE,112,2.0,7.0,52,0.00,,,0.00,Wunderground v.1.15,2013-05-05 00:24:00,
2013-05-04 20:29:00,58.7,41.1,30.10,ESE,119,0.0,7.0,52,0.00,,,0.00,Wunderground v.1.15,2013-05-05 00:29:00,
2013-05-04 20:34:00,58.6,41.0,30.10,ESE,115,0.0,4.0,52,0.00,,,0.00,Wunderground v.1.15,2013-05-05 00:34:00,
2013-05-04 20:39:00,58.4,40.8,30.10,ENE,75,0.0,4.0,52,0.00,,,0.00,Wunderground v.1.15,2013-05-05 00:39:00,
2013-05-04 20:44:00,58.2,40.6,30.10,NE,40,0.0,6.0,52,0.00,,,0.00,Wunderground v.1.15,2013-05-05 00:44:00,
2013-05-04 20:49:00,58.1,41.0,30.10,East,90,3.0,6.0,53,0.00,,,0.00,Wunderground v.1.15,2013-05-05 00:49:00,
2013-05-04 20:54:00,58.0,41.0,30.10,ESE,119,0.0,3.0,53,0.00,,,0.00,Wunderground v.1.15,2013-05-05 00:54:00,
2013-05-04 20:59:00,57.9,40.9,30.10,East,84,1.0,3.0,53,0.00,,,0.00,Wunderground v.1.15,2013-05-05 00:59:00,
2013-05-04 21:04:00,57.7,40.7,30.11,East,85,0.0,2.0,53,0.00,,,0.00,Wunderground v.1.15,2013-05-05 01:04:00,
2013-05-04 21:09:00,57.6,40.6,30.11,East,85,0.0,2.0,53,0.00,,,0.00,Wunderground v.1.15,2013-05-05 01:09:00,
2013-05-04 21:14:00,57.5,40.5,30.11,East,83,0.0,1.0,53,0.00,,,0.00,Wunderground v.1.15,2013-05-05 01:14:00,
2013-05-04 21:19:00,57.2,40.7,30.11,East,83,0.0,1.0,54,0.00,,,0.00,Wunderground v.1.15,2013-05-05 01:19:00,
2013-05-04 21:24:00,57.1,40.6,30.11,East,83,0.0,0.0,54,0.00,,,0.00,Wunderground v.1.15,2013-05-05 01:24:00,
2013-05-04 21:29:00,56.9,40.4,30.11,ESE,108,0.0,3.0,54,0.00,,,0.00,Wunderground v.1.15,2013-05-05 01:29:00,
2013-05-04 21:34:00,56.8,40.8,30.11,ESE,110,0.0,1.0,55,0.00,,,0.00,Wunderground v.1.15,2013-05-05 01:34:00,
2013-05-04 21:39:00,56.6,41.1,30.11,ESE,110,0.0,1.0,56,0.00,,,0.00,Wunderground v.1.15,2013-05-05 01:39:00,
2013-05-04 21:44:00,56.4,40.9,30.11,ESE,110,0.0,0.0,56,0.00,,,0.00,Wunderground v.1.15,2013-05-05 01:44:00,
2013-05-04 21:49:00,56.1,41.1,30.11,SE,146,0.0,3.0,57,0.00,,,0.00,Wunderground v.1.15,2013-05-05 01:49:00,
2013-05-04 21:54:00,55.8,41.2,30.11,South,190,3.0,3.0,58,0.00,,,0.00,Wunderground v.1.15,2013-05-05 01:54:00,
2013-05-04 21:59:00,55.7,41.1,30.11,ESE,109,1.0,5.0,58,0.00,,,0.00,Wunderground v.1.15,2013-05-05 01:59:00,
2013-05-04 22:04:00,55.7,40.7,30.11,ESE,112,2.0,3.0,57,0.00,,,0.00,Wunderground v.1.15,2013-05-05 02:04:00,
2013-05-04 22:09:00,55.8,40.8,30.11,East,98,2.0,3.0,57,0.00,,,0.00,Wunderground v.1.15,2013-05-05 02:09:00,
2013-05-04 22:14:00,55.9,40.9,30.11,ESE,121,1.0,4.0,57,0.00,,,0.00,Wunderground v.1.15,2013-05-05 02:14:00,
2013-05-04 22:19:00,56.0,41.0,30.11,East,96,3.0,5.0,57,0.00,,,0.00,Wunderground v.1.15,2013-05-05 02:19:00,
2013-05-04 22:24:00,56.0,41.0,30.11,SE,133,0.0,3.0,57,0.00,,,0.00,Wunderground v.1.15,2013-05-05 02:24:00,
2013-05-04 22:29:00,55.8,40.8,30.11,ESE,118,3.0,9.0,57,0.00,,,0.00,Wunderground v.1.15,2013-05-05 02:29:00,
2013-05-04 22:34:00,55.8,40.8,30.11,East,96,0.0,3.0,57,0.00,,,0.00,Wunderground v.1.15,2013-05-05 02:34:00,
2013-05-04 22:39:00,55.7,40.7,30.11,East,96,0.0,3.0,57,0.00,,,0.00,Wunderground v.1.15,2013-05-05 02:39:00,
2013-05-04 22:44:00,55.6,41.0,30.11,South,171,1.0,3.0,58,0.00,,,0.00,Wunderground v.1.15,2013-05-05 02:44:00,
2013-05-04 22:50:00,55.6,41.0,30.11,ESE,119,0.0,3.0,58,0.00,,,0.00,Wunderground v.1.15,2013-05-05 02:50:00,
2013-05-04 22:55:00,55.5,41.0,30.11,NE,43,0.0,4.0,58,0.00,,,0.00,Wunderground v.1.15,2013-05-05 02:55:00,
2013-05-04 23:00:00,55.4,41.3,30.11,ENE,62,0.0,0.0,59,0.00,,,0.00,Wunderground v.1.15,2013-05-05 03:00:00,
2013-05-04 23:05:00,55.2,41.1,30.11,East,86,0.0,3.0,59,0.00,,,0.00,Wunderground v.1.15,2013-05-05 03:05:00,
2013-05-04 23:10:00,55.1,41.0,30.11,SSW,208,0.0,0.0,59,0.00,,,0.00,Wunderground v.1.15,2013-05-05 03:10:00,
2013-05-04 23:15:00,54.9,41.3,30.10,SSE,163,0.0,5.0,60,0.00,,,0.00,Wunderground v.1.15,2013-05-05 03:15:00,
2013-05-04 23:20:00,54.8,41.2,30.10,NNE,28,1.0,1.0,60,0.00,,,0.00,Wunderground v.1.15,2013-05-05 03:20:00,
2013-05-04 23:25:00,54.7,41.5,30.10,NNW,338,0.0,4.0,61,0.00,,,0.00,Wunderground v.1.15,2013-05-05 03:25:00,
2013-05-04 23:30:00,54.5,40.9,30.10,SE,135,0.0,1.0,60,0.00,,,0.00,Wunderground v.1.15,2013-05-05 03:30:00,
2013-05-04 23:35:00,54.5,41.3,30.10,SSE,158,1.0,3.0,61,0.00,,,0.00,Wunderground v.1.15,2013-05-05 03:35:00,
2013-05-04 23:40:00,54.5,41.3,30.11,SE,146,0.0,1.0,61,0.00,,,0.00,Wunderground v.1.15,2013-05-05 03:40:00,
2013-05-04 23:45:00,54.4,41.2,30.10,SE,139,0.0,5.0,61,0.00,,,0.00,Wunderground v.1.15,2013-05-05 03:45:00,
2013-05-04 23:50:00,54.4,41.2,30.10,SSE,148,0.0,1.0,61,0.00,,,0.00,Wunderground v.1.15,2013-05-05 03:50:00,
2013-05-04 23:55:00,54.2,41.0,30.10,SSE,148,0.0,5.0,61,0.00,,,0.00,Wunderground v.1.15,2013-05-05 03:55:00,